World > North America > United States > Vermont

Enosburg Center, Vermont Regional Weather

Lat: 44.88N, Lon: 72.76W
Wx Zone: VTZ016Web Search

Helpful Tip: Abbreviated, 7 Day, 14 Day Forecasts. There is a weather forecast for every taste.

Feedback


°F Click to change Enosburg Center hourly weather to Imperial units.Click to change Enosburg Center hourly weather to Metric units. °C
Enosburg Center Weather Map
UTC Time: 4/16/2021, 11:34
Your Time:

Enosburg Center, VT Regional Weather

Expires:202104161200;;638396
ASUS41 KBTV 161131
RWRBTV
VERMONT REGIONAL WEATHER ROUNDUP
NATIONAL WEATHER SERVICE BURLINGTON VT
700 AM EDT FRI APR 16 2021

NOTE: "FAIR" INDICATES FEW OR NO CLOUDS BELOW 12,000 FEET WITH NO 
SIGNIFICANT WEATHER AND/OR OBSTRUCTIONS TO VISIBILITY.

* THESE REPORTS ARE NOT UNDER NWS QUALITY CONTROL AND/OR DO NOT
  REPORT WEATHER SUCH AS PRECIPITATION AND FOG.


VTZ001>019-161200-
_____VERMONT_
  
CITY           SKY/WX    TMP DP  RH WIND       PRES   REMARKS
BURLINGTON     LGT RAIN  39  35  86 N5        29.72S                  
MONTPELIER     SNOW      32  32 100 CALM      29.73S VSB 1/2          
MORRISVILLE    FLURRIES  35  33  92 N6        29.73S WCI  30          
ST. JOHNSBURY*   N/A     34  32  92 MISG      29.71R                  
LYNDONVILLE*   LGT SNOW  33  32  98 N7        29.72F VSB 1   WCI  26  
MIDDLEBURY*    RAIN      35  34  97 N6        29.69S WCI  30          
RUTLAND*       LGT SNOW  33  33 100 NW3       29.67S FOG              
SPRINGFIELD    LGT SNOW  33  29  85 CALM      29.67F FOG              
HIGHGATE*      LGT RAIN  39  36  90 CALM      29.75S                  
NEWPORT*       SNOW      32  31  94 CALM      29.75S VSB 1/2          
MT. MANSFIELD*   N/A     28 N/A N/A E5          N/A  WCI  23          

_____LAKE CHAMPLAIN_
  
CITY           SKY/WX    TMP DP  RH WIND       PRES   REMARKS
COLCHESTER RF*   N/A     39  34  81 NE9         N/A                   
DIAMOND ISL*     N/A     37  36  93 NW9         N/A  WCI  31          

$$


SKY/WX - Weather  TMP - Temperature  DP - Dew Point  RH - Relative Humidity
WIND - Wind Direction/Speed PRES - Barometric Pressure VSB - Visibility
WCI - Wind Chill Index E13G22 Wind - East Wind 13 mph/Gusts of 22 mph